EW8026 Guilford CT US current weather conditions

sailwx.info

Last reported at 2019-Dec-13 12:01 UTC.
Time now 2019-Dec-13 12:40 UTC

Location: N 41°17' W 072°44'.
View on Google Maps.

See reports from other nearby stations

  
Tides and Currents Weather Stations Pressure Air Temp Water Temp Dewpoint Dewpoint Depression Visibility Wind Speed Wind Dir Waves Ship Positions
date/time (UTC)wind fromknots sea level pressurealtimeterstation pressurevisibilityair tempwater tempwave heightnotes
2019-Dec-13 12:01
2019-Dec-13 11:45
2019-Dec-13 11:30
2019-Dec-13 11:15
2019-Dec-13 11:00
2019-Dec-13 10:45
2019-Dec-13 10:32
2019-Dec-13 10:18
2019-Dec-13 10:02
2019-Dec-13 09:48
2019-Dec-13 09:31
2019-Dec-13 09:17
2019-Dec-13 09:01
2019-Dec-13 08:45
2019-Dec-13 08:30
2019-Dec-13 08:16
2019-Dec-13 08:00
2019-Dec-13 07:45
2019-Dec-13 07:30 098 -3.9
2019-Dec-13 07:00 103 -3.3
2019-Dec-13 06:45 103 -3.9
2019-Dec-13 06:33 103 -3.9
2019-Dec-13 06:16 216 -4.4
2019-Dec-13 06:02 216 -4.4
2019-Dec-13 05:46 216 -4.4
2019-Dec-13 05:34 216 -5.0
2019-Dec-13 05:02 216 -5.0
2019-Dec-13 04:48 216 -4.4
2019-Dec-13 04:32 216 -4.4
2019-Dec-13 04:17 216 -4.4
2019-Dec-13 04:01 216 -5.0
2019-Dec-13 03:47 216 -5.0
2019-Dec-13 03:31 216 -5.0
2019-Dec-13 03:16 216 -4.4
2019-Dec-13 03:01 216 -4.4
2019-Dec-13 02:47 216 -4.4
2019-Dec-13 02:31 216 -4.4
2019-Dec-13 02:16 216 -4.4
2019-Dec-13 02:01 216 -4.4
2019-Dec-13 01:46 216 -4.4
2019-Dec-13 01:30 216 -3.9
2019-Dec-13 01:18 216 -3.9
2019-Dec-13 01:01 216 -3.9
2019-Dec-13 00:47 216 -3.9
2019-Dec-13 00:31 216 -3.3
2019-Dec-13 00:16 216 -3.3
2019-Dec-13 00:02 216 -3.3
2019-Dec-12 23:45 216 -3.3
2019-Dec-12 23:31 216 -3.3
2019-Dec-12 23:17 216 -3.3
2019-Dec-12 23:01 216 -2.8
2019-Dec-12 22:47 216 -2.8
2019-Dec-12 22:31 216 -2.8
2019-Dec-12 22:15 216 -2.2
2019-Dec-12 22:01 216 -2.2
2019-Dec-12 21:46 216 -1.7
2019-Dec-12 21:30 216 -1.7
2019-Dec-12 21:15 216 -1.1
2019-Dec-12 21:01 216 -0.6
2019-Dec-12 20:47 279 -0.6
2019-Dec-12 20:30 279 -0.0
2019-Dec-12 20:15 279 -0.0
2019-Dec-12 20:00 279 -0.0
2019-Dec-12 19:47 034 -0.0
2019-Dec-12 19:30 099 0.6
2019-Dec-12 19:15 116 0.6
2019-Dec-12 19:01 360 -0.6
2019-Dec-12 18:45 338 -0.6
2019-Dec-12 18:30 359 1 gusting 3 -0.6
2019-Dec-12 18:15 018 1 gusting 5 -1.1
2019-Dec-12 18:00 325 3 gusting 6 -1.1
2019-Dec-12 17:45 005 -1.1
2019-Dec-12 17:33 048 3 gusting 6 -1.1
2019-Dec-12 17:17 351 1 gusting 3 -1.1
2019-Dec-12 17:02 019 1 gusting 4 -1.7
2019-Dec-12 16:48 007 1 gusting 5 -1.7
2019-Dec-12 16:31 337 1 gusting 4 -1.7
2019-Dec-12 16:17 346 1 gusting 5 -2.2
2019-Dec-12 16:02 335 0 gusting 3 -2.2
2019-Dec-12 15:46 343 -2.8
2019-Dec-12 15:32 014 -2.8
2019-Dec-12 15:16 339 -3.3
2019-Dec-12 15:02 359 0 gusting 1 -3.3
2019-Dec-12 14:47 339 -3.9
2019-Dec-12 14:32 330 0 gusting 2 -3.9
2019-Dec-12 14:17 027 0 gusting 2 -4.4
2019-Dec-12 14:01 344 -4.4
2019-Dec-12 13:47 329 -5.0
2019-Dec-12 13:31 002 -5.6
2019-Dec-12 13:15 340 -6.1
2019-Dec-12 13:01
2019-Dec-12 12:45
2019-Dec-12 12:31
2019-Dec-12 12:16
2019-Dec-12 12:01
2019-Dec-12 11:45
2019-Dec-12 11:30
2019-Dec-12 11:16
2019-Dec-12 11:00
2019-Dec-12 10:48
2019-Dec-12 10:32
2019-Dec-12 10:17
2019-Dec-12 10:01
2019-Dec-12 09:46
2019-Dec-12 09:31
2019-Dec-12 09:15
2019-Dec-12 09:02
2019-Dec-12 08:45
2019-Dec-12 08:31
2019-Dec-12 08:15
2019-Dec-12 08:00
2019-Dec-12 07:45
2019-Dec-12 07:02 331 2 gusting 5 -2.8
2019-Dec-12 06:47 339 2 gusting 6 -2.8
2019-Dec-12 06:32 335 2 gusting 9 -2.2
2019-Dec-12 06:16 322 -2.8
2019-Dec-12 06:01 027 -2.2
2019-Dec-12 05:47 334 1 gusting 5 -2.2
2019-Dec-12 05:31 327 -2.8
2019-Dec-12 05:17 318 -2.2
2019-Dec-12 05:01 342 -2.2
2019-Dec-12 04:46 342 -2.2
2019-Dec-12 04:31 332 -2.2
2019-Dec-12 04:16 326 -1.7
2019-Dec-12 04:01 332 -1.7
2019-Dec-12 03:45 318 0 gusting 5 -1.7
2019-Dec-12 03:32 339 -1.7
2019-Dec-12 03:15 332 0 gusting 3 -1.7
2019-Dec-12 03:00 330 -1.1
2019-Dec-12 02:45 321 0 gusting 6 -1.1
2019-Dec-12 02:30 225 -1.1
2019-Dec-12 02:15 309 -1.1
2019-Dec-12 02:00 332 0 gusting 3 -0.6
2019-Dec-12 01:45 256 -0.6
2019-Dec-12 01:33 086 -0.6
2019-Dec-12 01:19 313 -0.6
2019-Dec-12 01:02 334 -0.0
2019-Dec-12 00:47 319 -0.0
2019-Dec-12 00:31 250 -0.6
2019-Dec-12 00:16 247 -0.6
2019-Dec-12 00:03 319 -1.1
2019-Dec-11 23:48 262 -1.1
2019-Dec-11 23:33 261 -1.1
2019-Dec-11 23:16 261 -1.1
2019-Dec-11 23:02 259 -1.1
2019-Dec-11 22:47 259 -1.1
2019-Dec-11 22:32 259 -1.1
2019-Dec-11 22:18 259 -1.1
2019-Dec-11 22:01 259 -1.1
2019-Dec-11 21:47 259 -1.1
2019-Dec-11 21:33 259 -0.6
2019-Dec-11 21:17 251 -0.6
2019-Dec-11 21:04 251 -0.0
2019-Dec-11 20:47 251 -0.0
2019-Dec-11 20:31 251 0.6
2019-Dec-11 20:17 272 0.6
2019-Dec-11 20:01 287 0.6
2019-Dec-11 19:46 351 1.1
2019-Dec-11 19:32 273 1.1
2019-Dec-11 19:15 209 0 gusting 3 0.6
2019-Dec-11 19:01 236 1.1
2019-Dec-11 18:46 231 -0.0
2019-Dec-11 18:31 222 -0.0
2019-Dec-11 18:15 323 -0.6
2019-Dec-11 18:01 292 -0.6
2019-Dec-11 17:46 344 -1.1
2019-Dec-11 17:30 350 0 gusting 1 -1.1
2019-Dec-11 17:16 335 -1.1
2019-Dec-11 17:01 337 -0.6
2019-Dec-11 16:46 337 -1.1
2019-Dec-11 16:31 337 -1.7
2019-Dec-11 16:16 337 -1.7
2019-Dec-11 16:01 335 -2.2
2019-Dec-11 15:45 335 -2.2
2019-Dec-11 15:31 334 -2.8
2019-Dec-11 15:15 335 -2.8
2019-Dec-11 15:00
2019-Dec-11 14:46
2019-Dec-11 14:30
2019-Dec-11 14:15
2019-Dec-11 14:00
2019-Dec-11 13:33
2019-Dec-11 13:17
2019-Dec-11 13:01
2019-Dec-11 12:47
2019-Dec-11 12:31
2019-Dec-11 12:16
2019-Dec-11 12:01